Time,TemperatureF,DewpointF,PressureIn,WindDirection,WindDirectionDegrees,WindSpeedMPH,WindSpeedGustMPH,Humidity,HourlyPrecipIn,Conditions,Clouds,dailyrainin,SoftwareType,DateUTC
2013-01-25 00:00:00,12.6,-10.3,30.16,WNW,283,3.9,11.1,34,0.00,,CLR,0.00,VWS V14.01,2013-01-25 05:00:00,
2013-01-25 00:04:00,12.6,-10.5,30.17,WSW,250,1.5,1.5,34,0.00,,CLR,0.00,VWS V14.01,2013-01-25 05:04:00,
2013-01-25 00:06:00,12.6,-10.7,30.17,NNE,30,4.9,5.4,34,0.00,,CLR,0.00,VWS V14.01,2013-01-25 05:06:00,
2013-01-25 00:11:00,12.4,-10.7,30.17,West,259,3.1,7.0,34,0.00,,CLR,0.00,VWS V14.01,2013-01-25 05:11:00,
2013-01-25 00:13:00,12.4,-10.6,30.17,NNW,333,6.1,9.6,34,0.00,,CLR,0.00,VWS V14.01,2013-01-25 05:13:00,
2013-01-25 00:18:00,12.4,-10.6,30.17,NNW,332,1.5,4.9,34,0.00,,CLR,0.00,VWS V14.01,2013-01-25 05:18:00,
2013-01-25 00:23:00,12.1,-11.1,30.18,NNE,27,6.7,7.3,34,0.00,,CLR,0.00,VWS V14.01,2013-01-25 05:23:00,
2013-01-25 00:28:00,12.1,-11.1,30.17,WNW,301,1.5,2.7,34,0.00,,CLR,0.00,VWS V14.01,2013-01-25 05:28:00,
2013-01-25 00:33:00,12.1,-10.8,30.17,NNW,333,1.5,6.5,34,0.00,,CLR,0.00,VWS V14.01,2013-01-25 05:33:00,
2013-01-25 00:38:00,12.1,-10.6,30.17,East,93,3.6,3.6,34,0.00,,CLR,0.00,VWS V14.01,2013-01-25 05:38:00,
2013-01-25 00:43:00,12.0,-10.7,30.18,NNW,347,4.4,6.7,34,0.00,,CLR,0.00,VWS V14.01,2013-01-25 05:43:00,
2013-01-25 00:48:00,11.9,-10.6,30.18,ESE,103,3.1,6.0,35,0.00,,CLR,0.00,VWS V14.01,2013-01-25 05:48:00,
2013-01-25 00:53:00,11.9,-10.8,30.18,NNW,342,5.9,7.0,34,0.00,,CLR,0.00,VWS V14.01,2013-01-25 05:53:00,
2013-01-25 00:58:00,11.8,-11.2,30.18,NW,318,6.0,9.0,34,0.00,,CLR,0.00,VWS V14.01,2013-01-25 05:58:00,
2013-01-25 01:03:00,11.8,-11.1,30.18,NNE,31,2.7,4.7,34,0.00,,CLR,0.00,VWS V14.01,2013-01-25 06:03:00,
2013-01-25 01:08:00,11.6,-11.3,30.18,West,266,1.5,2.9,34,0.00,,CLR,0.00,VWS V14.01,2013-01-25 06:08:00,
2013-01-25 01:13:00,11.5,-11.2,30.19,NNE,30,2.6,7.7,34,0.00,,CLR,0.00,VWS V14.01,2013-01-25 06:13:00,
2013-01-25 01:18:00,11.6,-11.0,30.19,NNE,15,1.5,1.5,34,0.00,,CLR,0.00,VWS V14.01,2013-01-25 06:18:00,
2013-01-25 01:23:00,11.5,-10.8,30.19,ENE,58,4.5,4.5,35,0.00,,CLR,0.00,VWS V14.01,2013-01-25 06:23:00,
2013-01-25 01:28:00,11.6,-10.6,30.20,NE,38,1.5,1.5,35,0.00,,CLR,0.00,VWS V14.01,2013-01-25 06:28:00,
2013-01-25 01:33:00,11.3,-11.0,30.20,WNW,284,5.5,6.5,35,0.00,,CLR,0.00,VWS V14.01,2013-01-25 06:33:00,
2013-01-25 01:38:00,11.2,-10.9,30.20,NW,307,1.5,2.4,35,0.00,,CLR,0.00,VWS V14.01,2013-01-25 06:38:00,
2013-01-25 01:43:00,11.3,-10.7,30.20,WSW,257,1.5,6.0,36,0.00,,CLR,0.00,VWS V14.01,2013-01-25 06:43:00,
2013-01-25 01:48:00,11.3,-10.7,30.20,South,177,1.5,1.5,36,0.00,,CLR,0.00,VWS V14.01,2013-01-25 06:48:00,
2013-01-25 01:53:00,11.4,-10.5,30.20,NNW,339,4.0,5.0,36,0.00,,CLR,0.00,VWS V14.01,2013-01-25 06:53:00,
2013-01-25 01:58:00,11.1,-11.0,30.20,South,184,1.5,5.7,35,0.00,,CLR,0.00,VWS V14.01,2013-01-25 06:58:00,
2013-01-25 02:03:00,11.2,-10.9,30.21,SSW,201,1.5,2.1,35,0.00,,CLR,0.00,VWS V14.01,2013-01-25 07:03:00,
2013-01-25 02:08:00,11.1,-11.1,30.21,SW,224,2.7,4.5,35,0.00,,CLR,0.00,VWS V14.01,2013-01-25 07:08:00,
2013-01-25 02:13:00,11.1,-11.0,30.21,East,82,1.5,1.5,35,0.00,,CLR,0.00,VWS V14.01,2013-01-25 07:13:00,
2013-01-25 02:18:00,10.9,-11.0,30.21,North,10,1.5,4.0,36,0.00,,CLR,0.00,VWS V14.01,2013-01-25 07:18:00,
2013-01-25 02:23:00,10.7,-10.9,30.20,WNW,283,5.4,5.4,36,0.00,,CLR,0.00,VWS V14.01,2013-01-25 07:23:00,
2013-01-25 02:28:00,10.8,-10.7,30.21,SW,228,2.4,4.1,36,0.00,,CLR,0.00,VWS V14.01,2013-01-25 07:28:00,
2013-01-25 02:33:00,10.6,-10.7,30.21,SSW,211,2.4,5.4,37,0.00,,CLR,0.00,VWS V14.01,2013-01-25 07:33:00,
2013-01-25 02:38:00,10.7,-10.7,30.21,SW,236,1.5,2.3,36,0.00,,CLR,0.00,VWS V14.01,2013-01-25 07:38:00,
2013-01-25 02:43:00,10.6,-10.6,30.22,SW,229,4.4,11.1,37,0.00,,CLR,0.00,VWS V14.01,2013-01-25 07:43:00,
2013-01-25 02:48:00,10.6,-10.7,30.22,WSW,257,1.5,3.3,37,0.00,,CLR,0.00,VWS V14.01,2013-01-25 07:48:00,
2013-01-25 02:53:00,10.6,-10.7,30.22,WNW,285,4.5,7.0,37,0.00,,CLR,0.00,VWS V14.01,2013-01-25 07:53:00,
2013-01-25 02:58:00,10.5,-10.6,30.21,SSE,167,1.5,4.0,37,0.00,,CLR,0.00,VWS V14.01,2013-01-25 07:58:00,
2013-01-25 03:03:00,10.4,-10.5,30.21,West,266,1.5,5.7,37,0.00,,CLR,0.00,VWS V14.01,2013-01-25 08:03:00,
2013-01-25 03:08:00,10.3,-10.6,30.22,SW,224,3.4,11.1,37,0.00,,CLR,0.00,VWS V14.01,2013-01-25 08:08:00,
2013-01-25 03:13:00,10.5,-10.3,30.22,NW,304,2.6,5.7,38,0.00,,CLR,0.00,VWS V14.01,2013-01-25 08:13:00,
2013-01-25 03:18:00,10.4,-10.4,30.22,NW,304,3.0,4.7,38,0.00,,CLR,0.00,VWS V14.01,2013-01-25 08:18:00,
2013-01-25 03:23:00,10.3,-10.4,30.21,ENE,65,4.1,8.1,38,0.00,,CLR,0.00,VWS V14.01,2013-01-25 08:23:00,
2013-01-25 03:28:00,10.4,-10.2,30.22,SW,218,3.6,3.6,38,0.00,,CLR,0.00,VWS V14.01,2013-01-25 08:28:00,
2013-01-25 03:33:00,10.3,-10.1,30.22,West,277,1.5,1.5,38,0.00,,CLR,0.00,VWS V14.01,2013-01-25 08:33:00,
2013-01-25 03:38:00,10.3,-9.9,30.22,West,267,4.6,8.2,39,0.00,,CLR,0.00,VWS V14.01,2013-01-25 08:38:00,
2013-01-25 03:43:00,10.3,-10.1,30.22,SSW,212,1.5,3.0,38,0.00,,CLR,0.00,VWS V14.01,2013-01-25 08:43:00,
2013-01-25 03:48:00,10.2,-10.1,30.22,West,281,2.8,5.9,38,0.00,,CLR,0.00,VWS V14.01,2013-01-25 08:48:00,
2013-01-25 03:53:00,10.1,-10.1,30.21,WSW,249,1.5,1.5,39,0.00,,CLR,0.00,VWS V14.01,2013-01-25 08:53:00,
2013-01-25 03:58:00,10.2,-9.7,30.21,North,3,2.6,5.8,39,0.00,,CLR,0.00,VWS V14.01,2013-01-25 08:58:00,
2013-01-25 04:03:00,10.0,-9.9,30.22,SSW,208,1.5,1.5,39,0.00,,CLR,0.00,VWS V14.01,2013-01-25 09:03:00,
2013-01-25 04:08:00,10.0,-9.9,30.23,SSW,210,1.5,2.4,39,0.00,,CLR,0.00,VWS V14.01,2013-01-25 09:08:00,
2013-01-25 04:13:00,9.9,-10.1,30.23,West,278,2.2,5.8,39,0.00,,CLR,0.00,VWS V14.01,2013-01-25 09:13:00,
2013-01-25 04:18:00,9.9,-10.1,30.23,WNW,291,1.5,1.5,39,0.00,,CLR,0.00,VWS V14.01,2013-01-25 09:18:00,
2013-01-25 04:23:00,9.8,-10.1,30.23,West,262,1.5,1.5,39,0.00,,CLR,0.00,VWS V14.01,2013-01-25 09:23:00,
2013-01-25 04:28:00,9.7,-10.1,30.22,West,280,1.5,5.3,39,0.00,,CLR,0.00,VWS V14.01,2013-01-25 09:28:00,
2013-01-25 04:33:00,9.8,-10.1,30.23,WSW,250,1.5,1.5,39,0.00,,CLR,0.00,VWS V14.01,2013-01-25 09:33:00,
2013-01-25 04:38:00,9.9,-10.0,30.23,West,269,1.5,1.5,39,0.00,,CLR,0.00,VWS V14.01,2013-01-25 09:38:00,
2013-01-25 04:43:00,9.7,-10.2,30.23,SW,233,1.5,1.5,39,0.00,,CLR,0.00,VWS V14.01,2013-01-25 09:43:00,
2013-01-25 04:48:00,9.7,-10.2,30.23,SW,233,1.5,1.5,39,0.00,,CLR,0.00,VWS V14.01,2013-01-25 09:48:00,
2013-01-25 04:54:00,9.6,-10.3,30.22,West,262,3.3,3.9,39,0.00,,CLR,0.00,VWS V14.01,2013-01-25 09:54:00,
2013-01-25 04:59:00,9.5,-10.2,30.23,West,281,1.5,1.5,39,0.00,,CLR,0.00,VWS V14.01,2013-01-25 09:59:00,
2013-01-25 05:05:00,9.5,-10.1,30.23,SW,215,5.1,5.4,40,0.00,,CLR,0.00,VWS V14.01,2013-01-25 10:05:00,
2013-01-25 05:10:00,9.4,-10.2,30.23,WSW,240,1.5,2.1,40,0.00,,CLR,0.00,VWS V14.01,2013-01-25 10:10:00,
2013-01-25 05:15:00,9.2,-10.2,30.23,SW,235,4.8,4.8,40,0.00,,CLR,0.00,VWS V14.01,2013-01-25 10:15:00,
2013-01-25 05:20:00,9.1,-10.4,30.24,West,269,2.7,6.0,40,0.00,,CLR,0.00,VWS V14.01,2013-01-25 10:20:00,
2013-01-25 05:25:00,9.1,-10.3,30.24,West,263,1.5,2.6,40,0.00,,CLR,0.00,VWS V14.01,2013-01-25 10:25:00,
2013-01-25 05:30:00,9.0,-10.2,30.23,SSW,195,1.5,1.5,40,0.00,,CLR,0.00,VWS V14.01,2013-01-25 10:30:00,
2013-01-25 05:35:00,9.0,-10.1,30.24,SW,218,3.6,6.8,41,0.00,,CLR,0.00,VWS V14.01,2013-01-25 10:35:00,
2013-01-25 05:41:00,9.0,-10.1,30.24,West,263,1.5,1.5,41,0.00,,CLR,0.00,VWS V14.01,2013-01-25 10:41:00,
2013-01-25 05:46:00,8.8,-10.3,30.24,WSW,255,1.5,5.3,40,0.00,,CLR,0.00,VWS V14.01,2013-01-25 10:46:00,
2013-01-25 05:51:00,8.8,-10.3,30.24,SW,217,2.4,3.9,41,0.00,,CLR,0.00,VWS V14.01,2013-01-25 10:51:00,
2013-01-25 05:56:00,8.8,-10.2,30.24,NW,312,1.5,4.6,41,0.00,,CLR,0.00,VWS V14.01,2013-01-25 10:56:00,
2013-01-25 06:01:00,8.8,-10.1,30.24,WSW,245,1.5,1.5,41,0.00,,CLR,0.00,VWS V14.01,2013-01-25 11:01:00,
2013-01-25 06:06:00,8.9,-9.9,30.24,West,274,2.8,6.8,41,0.00,,CLR,0.00,VWS V14.01,2013-01-25 11:06:00,
2013-01-25 06:11:00,8.7,-10.1,30.23,NNW,330,1.5,1.5,41,0.00,,CLR,0.00,VWS V14.01,2013-01-25 11:11:00,
2013-01-25 06:16:00,8.8,-9.8,30.23,SW,225,1.5,1.5,42,0.00,,CLR,0.00,VWS V14.01,2013-01-25 11:16:00,
2013-01-25 06:21:00,8.8,-9.7,30.23,WSW,240,1.5,2.7,42,0.00,,CLR,0.00,VWS V14.01,2013-01-25 11:21:00,
2013-01-25 06:26:00,8.7,-9.9,30.23,North,356,1.5,4.8,42,0.00,,CLR,0.00,VWS V14.01,2013-01-25 11:26:00,
2013-01-25 06:32:00,8.9,-9.9,30.23,West,266,1.5,2.4,41,0.00,,CLR,0.00,VWS V14.01,2013-01-25 11:32:00,
2013-01-25 06:37:00,8.7,-9.9,30.23,SW,214,1.5,5.8,42,0.00,,CLR,0.00,VWS V14.01,2013-01-25 11:37:00,
2013-01-25 06:42:00,8.8,-10.0,30.23,SW,229,1.5,1.5,41,0.00,,CLR,0.00,VWS V14.01,2013-01-25 11:42:00,
2013-01-25 06:47:00,8.7,-9.7,30.23,SSW,195,1.5,1.5,42,0.00,,CLR,0.00,VWS V14.01,2013-01-25 11:47:00,
2013-01-25 06:52:00,8.7,-9.3,30.23,WNW,292,1.5,4.1,43,0.00,,CLR,0.00,VWS V14.01,2013-01-25 11:52:00,
2013-01-25 06:57:00,8.7,-9.3,30.23,WNW,300,1.5,2.6,43,0.00,,CLR,0.00,VWS V14.01,2013-01-25 11:57:00,
2013-01-25 07:02:00,8.7,-9.4,30.23,SW,233,1.5,3.8,42,0.00,,SCT250,0.00,VWS V14.01,2013-01-25 12:02:00,
2013-01-25 07:07:00,8.8,-9.3,30.24,WSW,252,1.5,1.5,43,0.00,,SCT250,0.00,VWS V14.01,2013-01-25 12:07:00,
2013-01-25 07:12:00,8.8,-9.6,30.24,SW,221,2.7,5.5,42,0.00,,SCT250,0.00,VWS V14.01,2013-01-25 12:12:00,
2013-01-25 07:17:00,8.8,-9.4,30.23,SE,143,5.4,6.2,42,0.00,,SCT250,0.00,VWS V14.01,2013-01-25 12:17:00,
2013-01-25 07:22:00,8.9,-9.1,30.24,SW,232,1.5,7.0,43,0.00,,SCT250,0.00,VWS V14.01,2013-01-25 12:22:00,
2013-01-25 07:27:00,9.2,-9.0,30.23,WSW,255,3.8,3.8,42,0.00,,SCT250,0.00,VWS V14.01,2013-01-25 12:27:00,
2013-01-25 07:32:00,9.2,-9.2,30.23,WSW,238,1.5,1.5,42,0.00,,SCT250,0.00,VWS V14.01,2013-01-25 12:32:00,
2013-01-25 07:38:00,9.6,-8.8,30.23,NW,316,4.2,6.7,42,0.00,,SCT250,0.00,VWS V14.01,2013-01-25 12:38:00,
2013-01-25 07:43:00,9.7,-8.8,30.23,WSW,252,1.5,4.4,42,0.00,,SCT250,0.00,VWS V14.01,2013-01-25 12:43:00,
2013-01-25 07:48:00,9.9,-8.7,30.23,WSW,246,5.0,5.0,42,0.00,,SCT250,0.00,VWS V14.01,2013-01-25 12:48:00,
2013-01-25 07:53:00,10.2,-8.7,30.24,SSW,207,1.5,3.4,41,0.00,,SCT250,0.00,VWS V14.01,2013-01-25 12:53:00,
2013-01-25 07:58:00,10.2,-8.7,30.24,SW,229,4.7,4.7,41,0.00,,SCT250,0.00,VWS V14.01,2013-01-25 12:58:00,
2013-01-25 08:03:00,10.6,-8.3,30.24,SW,228,1.5,1.5,41,0.00,,BKN250,0.00,VWS V14.01,2013-01-25 13:03:00,
2013-01-25 08:08:00,11.0,-8.0,30.25,ENE,69,1.5,1.5,41,0.00,,BKN250,0.00,VWS V14.01,2013-01-25 13:08:00,
2013-01-25 08:14:00,11.1,-8.3,30.24,East,84,3.7,5.9,40,0.00,,BKN250,0.00,VWS V14.01,2013-01-25 13:14:00,
2013-01-25 08:19:00,11.4,-8.2,30.24,West,259,4.9,8.1,40,0.00,,BKN250,0.00,VWS V14.01,2013-01-25 13:19:00,
2013-01-25 08:24:00,11.5,-8.2,30.24,WNW,297,1.5,3.1,40,0.00,,BKN250,0.00,VWS V14.01,2013-01-25 13:24:00,
2013-01-25 08:29:00,12.0,-7.8,30.24,NW,322,4.6,4.6,40,0.00,,BKN250,0.00,VWS V14.01,2013-01-25 13:29:00,
2013-01-25 08:35:00,12.4,-7.6,30.24,NW,319,5.2,12.7,40,0.00,,BKN250,0.00,VWS V14.01,2013-01-25 13:35:00,
2013-01-25 08:41:00,12.8,-7.7,30.24,ENE,69,4.4,4.6,39,0.00,,BKN250,0.00,VWS V14.01,2013-01-25 13:41:00,
2013-01-25 08:46:00,13.0,-7.7,30.24,SSW,198,3.5,5.0,38,0.00,,BKN250,0.00,VWS V14.01,2013-01-25 13:46:00,
2013-01-25 08:52:00,13.5,-7.4,30.24,West,276,4.4,5.0,38,0.00,,BKN250,0.00,VWS V14.01,2013-01-25 13:52:00,
2013-01-25 08:57:00,13.8,-7.7,30.25,North,10,2.8,6.8,37,0.00,,BKN250,0.00,VWS V14.01,2013-01-25 13:57:00,
2013-01-25 09:03:00,14.0,-7.7,30.25,WNW,292,6.7,7.8,36,0.00,,BKN250,0.00,VWS V14.01,2013-01-25 14:03:00,
2013-01-25 09:09:00,14.4,-7.7,30.25,NW,304,8.6,9.5,36,0.00,,BKN250,0.00,VWS V14.01,2013-01-25 14:09:00,
2013-01-25 09:14:00,14.6,-7.8,30.25,SW,221,3.7,7.9,36,0.00,,BKN250,0.00,VWS V14.01,2013-01-25 14:14:00,
2013-01-25 09:19:00,14.9,-7.6,30.24,North,350,1.5,6.8,35,0.00,,BKN250,0.00,VWS V14.01,2013-01-25 14:19:00,
2013-01-25 09:24:00,15.0,-7.8,30.25,SW,221,3.9,13.0,35,0.00,,BKN250,0.00,VWS V14.01,2013-01-25 14:24:00,
2013-01-25 09:30:00,15.4,-7.9,30.25,West,277,3.8,6.3,34,0.00,,BKN250,0.00,VWS V14.01,2013-01-25 14:30:00,
2013-01-25 09:35:00,15.9,-7.5,30.25,WNW,300,1.5,2.9,34,0.00,,BKN250,0.00,VWS V14.01,2013-01-25 14:35:00,
2013-01-25 09:40:00,16.3,-7.9,30.25,North,356,3.9,5.8,33,0.00,,BKN250,0.00,VWS V14.01,2013-01-25 14:40:00,
2013-01-25 09:45:00,16.3,-8.1,30.25,WNW,284,6.5,8.0,32,0.00,,BKN250,0.00,VWS V14.01,2013-01-25 14:45:00,
2013-01-25 09:51:00,16.7,-8.2,30.25,North,359,2.1,5.2,32,0.00,,BKN250,0.00,VWS V14.01,2013-01-25 14:51:00,
2013-01-25 09:56:00,17.1,-7.9,30.25,WSW,239,1.5,3.2,32,0.00,,BKN250,0.00,VWS V14.01,2013-01-25 14:56:00,
2013-01-25 10:01:00,17.4,-7.8,30.25,ENE,68,3.6,6.7,31,0.00,,BKN250,0.00,VWS V14.01,2013-01-25 15:01:00,
2013-01-25 10:06:00,17.8,-7.6,30.25,SW,218,1.5,6.4,31,0.00,,BKN250,0.00,VWS V14.01,2013-01-25 15:06:00,
2013-01-25 10:12:00,18.0,-8.4,30.25,SW,229,2.6,8.1,30,0.00,,BKN250,0.00,VWS V14.01,2013-01-25 15:12:00,
2013-01-25 10:17:00,18.2,-8.2,30.25,NNW,328,3.1,7.3,30,0.00,,BKN250,0.00,VWS V14.01,2013-01-25 15:17:00,
2013-01-25 10:22:00,18.6,-7.7,30.25,SE,124,2.7,9.2,30,0.00,,BKN250,0.00,VWS V14.01,2013-01-25 15:22:00,
2013-01-25 10:27:00,19.0,-7.5,30.25,WNW,302,6.0,8.1,30,0.00,,BKN250,0.00,VWS V14.01,2013-01-25 15:27:00,
2013-01-25 10:33:00,19.1,-8.0,30.24,SW,226,5.1,7.5,29,0.00,,BKN250,0.00,VWS V14.01,2013-01-25 15:33:00,
2013-01-25 10:38:00,19.3,-7.8,30.24,WSW,239,5.2,9.6,29,0.00,,BKN250,0.00,VWS V14.01,2013-01-25 15:38:00,
2013-01-25 10:43:00,19.6,-7.6,30.23,West,281,2.9,6.0,29,0.00,,BKN250,0.00,VWS V14.01,2013-01-25 15:43:00,
2013-01-25 10:48:00,19.8,-7.4,30.23,WNW,283,3.3,4.9,29,0.00,,BKN250,0.00,VWS V14.01,2013-01-25 15:48:00,
2013-01-25 10:54:00,20.2,-7.2,30.23,North,357,5.4,6.2,29,0.00,,BKN250,0.00,VWS V14.01,2013-01-25 15:54:00,
2013-01-25 10:59:00,20.5,-7.1,30.23,WSW,257,3.1,10.9,28,0.00,,BKN250,0.00,VWS V14.01,2013-01-25 15:59:00,
2013-01-25 11:04:00,20.7,-7.5,30.23,ENE,69,2.3,5.2,28,0.00,,BKN250,0.00,VWS V14.01,2013-01-25 16:04:00,
2013-01-25 11:09:00,21.1,-7.3,30.22,West,267,7.1,9.5,28,0.00,,BKN250,0.00,VWS V14.01,2013-01-25 16:09:00,
2013-01-25 11:15:00,21.3,-7.8,30.22,WNW,297,5.1,8.7,27,0.00,,BKN250,0.00,VWS V14.01,2013-01-25 16:15:00,
2013-01-25 11:20:00,21.5,-7.9,30.22,NNE,18,5.0,7.7,26,0.00,,BKN250,0.00,VWS V14.01,2013-01-25 16:20:00,
2013-01-25 11:26:00,21.7,-8.1,30.22,North,354,4.6,9.7,26,0.00,,BKN250,0.00,VWS V14.01,2013-01-25 16:26:00,
2013-01-25 11:31:00,22.0,-8.1,30.22,East,90,1.5,4.7,25,0.00,,BKN250,0.00,VWS V14.01,2013-01-25 16:31:00,
2013-01-25 11:36:00,22.4,-7.8,30.21,West,281,7.2,9.1,25,0.00,,BKN250,0.00,VWS V14.01,2013-01-25 16:36:00,
2013-01-25 11:41:00,22.9,-7.3,30.20,North,352,4.6,7.7,25,0.00,,BKN250,0.00,VWS V14.01,2013-01-25 16:41:00,
2013-01-25 11:46:00,22.9,-7.8,30.20,NNE,21,3.6,5.9,25,0.00,,BKN250,0.00,VWS V14.01,2013-01-25 16:46:00,
2013-01-25 11:51:00,22.9,-8.1,30.19,NNW,336,4.7,7.4,24,0.00,,BKN250,0.00,VWS V14.01,2013-01-25 16:51:00,
2013-01-25 11:57:00,23.5,-7.1,30.19,SW,236,8.0,8.0,25,0.00,,BKN250,0.00,VWS V14.01,2013-01-25 16:57:00,
2013-01-25 12:03:00,24.1,-6.7,30.20,NNE,15,5.8,6.7,25,0.00,,BKN250,0.00,VWS V14.01,2013-01-25 17:03:00,
2013-01-25 12:08:00,24.4,-7.2,30.19,North,4,1.5,6.5,24,0.00,,BKN250,0.00,VWS V14.01,2013-01-25 17:08:00,
2013-01-25 12:14:00,24.5,-7.6,30.19,NW,307,3.4,9.7,24,0.00,,BKN250,0.00,VWS V14.01,2013-01-25 17:14:00,
2013-01-25 12:20:00,24.9,-8.0,30.19,NNE,31,3.5,8.1,23,0.00,,BKN250,0.00,VWS V14.01,2013-01-25 17:20:00,
2013-01-25 12:25:00,24.8,-8.1,30.18,WNW,285,1.5,3.9,23,0.00,,BKN250,0.00,VWS V14.01,2013-01-25 17:25:00,
2013-01-25 12:30:00,25.1,-7.5,30.18,West,276,7.8,8.0,23,0.00,,BKN250,0.00,VWS V14.01,2013-01-25 17:30:00,
2013-01-25 12:36:00,25.4,-8.1,30.18,WSW,248,1.5,5.0,22,0.00,,BKN250,0.00,VWS V14.01,2013-01-25 17:36:00,
2013-01-25 12:41:00,25.6,-8.1,30.18,North,4,4.3,6.5,22,0.00,,BKN250,0.00,VWS V14.01,2013-01-25 17:41:00,
2013-01-25 12:47:00,25.8,-7.7,30.18,WNW,295,6.4,7.7,22,0.00,,BKN250,0.00,VWS V14.01,2013-01-25 17:47:00,
2013-01-25 12:52:00,25.9,-7.6,30.17,NNW,345,2.4,5.7,22,0.00,,BKN250,0.00,VWS V14.01,2013-01-25 17:52:00,
2013-01-25 12:58:00,25.8,-8.4,30.17,WSW,256,3.5,7.8,21,0.00,,BKN250,0.00,VWS V14.01,2013-01-25 17:58:00,
2013-01-25 13:04:00,25.5,-8.9,30.17,WNW,290,4.0,7.5,21,0.00,,BKN250,0.00,VWS V14.01,2013-01-25 18:04:00,
2013-01-25 13:10:00,25.4,-9.4,30.16,WSW,255,4.5,7.3,21,0.00,,BKN250,0.00,VWS V14.01,2013-01-25 18:10:00,
2013-01-25 13:16:00,25.3,-9.4,30.16,WSW,239,4.7,5.1,21,0.00,,BKN250,0.00,VWS V14.01,2013-01-25 18:16:00,
2013-01-25 13:21:00,25.3,-9.1,30.16,South,184,2.9,7.1,21,0.00,,BKN250,0.00,VWS V14.01,2013-01-25 18:21:00,
2013-01-25 13:27:00,25.4,-8.9,30.15,West,267,10.9,11.3,21,0.00,,BKN250,0.00,VWS V14.01,2013-01-25 18:27:00,
2013-01-25 13:33:00,25.4,-8.9,30.16,SSW,205,4.0,7.4,21,0.00,,BKN250,0.00,VWS V14.01,2013-01-25 18:33:00,
2013-01-25 13:38:00,25.7,-8.4,30.15,SW,225,2.1,6.3,21,0.00,,BKN250,0.00,VWS V14.01,2013-01-25 18:38:00,
2013-01-25 13:44:00,25.8,-8.9,30.15,WSW,240,5.2,8.5,21,0.00,,BKN250,0.00,VWS V14.01,2013-01-25 18:44:00,
2013-01-25 13:50:00,26.0,-8.9,30.15,SSW,194,4.9,7.8,21,0.00,,BKN250,0.00,VWS V14.01,2013-01-25 18:50:00,
2013-01-25 13:55:00,26.4,-7.6,30.15,NNW,343,1.5,1.5,22,0.00,,BKN250,0.00,VWS V14.01,2013-01-25 18:55:00,
2013-01-25 14:01:00,26.7,-8.0,30.14,NNW,336,1.5,2.2,21,0.00,,BKN250,0.00,VWS V14.01,2013-01-25 19:01:00,
2013-01-25 14:07:00,27.2,-7.8,30.14,South,169,3.6,5.8,21,0.00,,BKN250,0.00,VWS V14.01,2013-01-25 19:07:00,
2013-01-25 14:12:00,27.3,-8.7,30.14,East,86,1.5,1.5,20,0.00,,BKN250,0.00,VWS V14.01,2013-01-25 19:12:00,
2013-01-25 14:18:00,28.0,-7.0,30.14,NNW,338,2.2,3.7,21,0.00,,BKN250,0.00,VWS V14.01,2013-01-25 19:18:00,
2013-01-25 14:24:00,28.5,-6.8,30.14,WSW,255,1.5,1.5,21,0.00,,BKN250,0.00,VWS V14.01,2013-01-25 19:24:00,
2013-01-25 14:30:00,28.7,-7.8,30.14,SW,235,1.5,4.9,20,0.00,,BKN250,0.00,VWS V14.01,2013-01-25 19:30:00,
2013-01-25 14:35:00,28.1,-8.6,30.13,SW,217,6.3,6.6,19,0.00,,BKN250,0.00,VWS V14.01,2013-01-25 19:35:00,
2013-01-25 14:41:00,27.6,-8.9,30.13,SW,222,3.9,3.9,19,0.00,,BKN250,0.00,VWS V14.01,2013-01-25 19:41:00,
2013-01-25 14:46:00,27.7,-8.2,30.13,South,174,1.5,2.9,20,0.00,,BKN250,0.00,VWS V14.01,2013-01-25 19:46:00,
2013-01-25 14:52:00,27.6,-7.9,30.13,South,184,1.5,1.5,20,0.00,,BKN250,0.00,VWS V14.01,2013-01-25 19:52:00,
2013-01-25 14:58:00,27.7,-8.1,30.13,WSW,249,1.5,4.2,20,0.00,,BKN250,0.00,VWS V14.01,2013-01-25 19:58:00,
2013-01-25 15:03:00,27.7,-8.1,30.13,NNW,339,1.5,3.9,20,0.00,,BKN280,0.00,VWS V14.01,2013-01-25 20:03:00,
2013-01-25 15:09:00,27.6,-7.9,30.12,West,281,3.6,4.9,20,0.00,,BKN280,0.00,VWS V14.01,2013-01-25 20:09:00,
2013-01-25 15:15:00,27.4,-8.6,30.12,NNE,17,1.5,3.7,20,0.00,,BKN280,0.00,VWS V14.01,2013-01-25 20:15:00,
2013-01-25 15:21:00,27.3,-8.6,30.12,West,269,3.5,5.9,20,0.00,,BKN280,0.00,VWS V14.01,2013-01-25 20:21:00,
2013-01-25 15:26:00,27.3,-8.8,30.12,SW,236,1.5,4.0,20,0.00,,BKN280,0.00,VWS V14.01,2013-01-25 20:26:00,
2013-01-25 15:32:00,27.0,-9.1,30.13,WNW,294,4.1,4.7,20,0.00,,BKN280,0.00,VWS V14.01,2013-01-25 20:32:00,
2013-01-25 15:38:00,26.6,-9.4,30.13,NNW,342,1.5,1.5,20,0.00,,BKN280,0.00,VWS V14.01,2013-01-25 20:38:00,
2013-01-25 15:43:00,26.6,-9.3,30.13,SSW,202,1.5,3.4,20,0.00,,BKN280,0.00,VWS V14.01,2013-01-25 20:43:00,
2013-01-25 15:49:00,26.5,-8.2,30.12,NW,318,3.7,4.7,21,0.00,,BKN280,0.00,VWS V14.01,2013-01-25 20:49:00,
2013-01-25 15:55:00,26.1,-8.9,30.12,West,271,2.6,4.7,21,0.00,,BKN280,0.00,VWS V14.01,2013-01-25 20:55:00,
2013-01-25 16:00:00,26.0,-9.2,30.13,NNW,339,3.4,5.2,20,0.00,,BKN280,0.00,VWS V14.01,2013-01-25 21:00:00,
2013-01-25 16:06:00,25.9,-9.0,30.13,West,267,1.5,2.4,21,0.00,,BKN280,0.00,VWS V14.01,2013-01-25 21:06:00,
2013-01-25 16:12:00,25.8,-8.9,30.13,West,264,1.5,1.5,21,0.00,,BKN280,0.00,VWS V14.01,2013-01-25 21:12:00,
2013-01-25 16:17:00,25.7,-8.9,30.12,West,276,1.5,3.0,21,0.00,,BKN280,0.00,VWS V14.01,2013-01-25 21:17:00,
2013-01-25 16:23:00,25.5,-8.9,30.12,West,270,1.5,1.5,21,0.00,,BKN280,0.00,VWS V14.01,2013-01-25 21:23:00,
2013-01-25 16:29:00,25.3,-9.2,30.13,SW,224,1.5,1.5,21,0.00,,BKN280,0.00,VWS V14.01,2013-01-25 21:29:00,
2013-01-25 16:34:00,25.1,-9.1,30.12,SW,229,3.2,3.9,21,0.00,,BKN280,0.00,VWS V14.01,2013-01-25 21:34:00,
2013-01-25 16:40:00,25.0,-8.8,30.12,SW,236,1.5,4.7,22,0.00,,BKN280,0.00,VWS V14.01,2013-01-25 21:40:00,
2013-01-25 16:46:00,25.0,-9.0,30.12,SW,233,1.5,1.5,21,0.00,,BKN280,0.00,VWS V14.01,2013-01-25 21:46:00,
2013-01-25 16:51:00,24.7,-9.2,30.12,WNW,294,4.5,6.5,22,0.00,,BKN280,0.00,VWS V14.01,2013-01-25 21:51:00,
2013-01-25 16:57:00,24.6,-8.9,30.13,SW,236,1.5,1.5,22,0.00,,BKN280,0.00,VWS V14.01,2013-01-25 21:57:00,
2013-01-25 17:03:00,24.4,-8.5,30.13,WNW,285,1.5,1.5,22,0.00,,BKN280,0.00,VWS V14.01,2013-01-25 22:03:00,
2013-01-25 17:08:00,24.3,-7.8,30.13,West,271,1.5,5.2,23,0.00,,BKN280,0.00,VWS V14.01,2013-01-25 22:08:00,
2013-01-25 17:14:00,24.1,-7.8,30.13,West,264,3.5,6.3,24,0.00,,BKN280,0.00,VWS V14.01,2013-01-25 22:14:00,
2013-01-25 17:20:00,24.0,-8.2,30.13,WSW,249,3.5,3.5,23,0.00,,BKN280,0.00,VWS V14.01,2013-01-25 22:20:00,
2013-01-25 17:25:00,24.0,-7.7,30.13,West,278,1.5,5.9,24,0.00,,BKN280,0.00,VWS V14.01,2013-01-25 22:25:00,
2013-01-25 17:31:00,23.9,-7.5,30.13,West,269,1.5,1.5,24,0.00,,BKN280,0.00,VWS V14.01,2013-01-25 22:31:00,
2013-01-25 17:37:00,24.0,-7.4,30.12,SSW,207,1.5,2.7,24,0.00,,BKN280,0.00,VWS V14.01,2013-01-25 22:37:00,
2013-01-25 17:42:00,23.8,-7.3,30.12,SW,233,1.9,1.9,24,0.00,,BKN280,0.00,VWS V14.01,2013-01-25 22:42:00,
2013-01-25 17:48:00,23.7,-6.3,30.11,West,262,1.5,2.9,26,0.00,,BKN280,0.00,VWS V14.01,2013-01-25 22:48:00,
2013-01-25 17:54:00,23.8,-6.2,30.12,SW,219,1.5,4.4,26,0.00,,BKN280,0.00,VWS V14.01,2013-01-25 22:54:00,
2013-01-25 17:59:00,23.7,-6.5,30.11,WSW,238,3.0,3.1,26,0.00,,BKN280,0.00,VWS V14.01,2013-01-25 22:59:00,
2013-01-25 18:05:00,23.7,-6.3,30.11,WSW,257,1.5,1.5,26,0.00,,BKN280,0.00,VWS V14.01,2013-01-25 23:05:00,
2013-01-25 18:11:00,23.6,-5.8,30.11,WSW,257,1.5,1.5,26,0.00,,BKN280,0.00,VWS V14.01,2013-01-25 23:11:00,
2013-01-25 18:16:00,23.7,-6.1,30.11,WSW,242,1.5,3.4,26,0.00,,BKN280,0.00,VWS V14.01,2013-01-25 23:16:00,
2013-01-25 18:22:00,23.5,-6.3,30.11,SW,235,1.5,2.6,26,0.00,,BKN280,0.00,VWS V14.01,2013-01-25 23:22:00,
2013-01-25 18:28:00,23.5,-5.2,30.10,SW,235,1.5,1.5,28,0.00,,BKN280,0.00,VWS V14.01,2013-01-25 23:28:00,
2013-01-25 18:33:00,23.6,-5.0,30.10,SW,235,1.5,1.5,28,0.00,,BKN280,0.00,VWS V14.01,2013-01-25 23:33:00,
2013-01-25 18:39:00,23.4,-5.1,30.10,SW,235,1.5,1.5,28,0.00,,BKN280,0.00,VWS V14.01,2013-01-25 23:39:00,
2013-01-25 18:45:00,23.4,-5.0,30.11,SW,235,1.5,1.5,28,0.00,,BKN280,0.00,VWS V14.01,2013-01-25 23:45:00,
2013-01-25 18:50:00,23.4,-5.0,30.11,SW,235,1.5,1.5,28,0.00,,BKN280,0.00,VWS V14.01,2013-01-25 23:50:00,
2013-01-25 18:56:00,23.4,-4.7,30.11,SSW,212,1.5,1.5,28,0.00,,BKN280,0.00,VWS V14.01,2013-01-25 23:56:00,
2013-01-25 19:01:00,23.4,-4.6,30.10,WSW,238,1.5,1.5,28,0.00,,OVC110,0.00,VWS V14.01,2013-01-26 00:01:00,
2013-01-25 19:06:00,23.3,-4.5,30.10,WSW,238,1.5,1.5,29,0.00,,OVC110,0.00,VWS V14.01,2013-01-26 00:06:00,
2013-01-25 19:11:00,23.3,-3.6,30.10,WSW,238,1.5,1.5,30,0.00,,OVC110,0.00,VWS V14.01,2013-01-26 00:11:00,
2013-01-25 19:17:00,23.2,-3.9,30.10,WSW,238,1.5,1.5,30,0.00,,OVC110,0.00,VWS V14.01,2013-01-26 00:17:00,
2013-01-25 19:22:00,23.2,-4.3,30.10,WSW,238,1.5,1.5,29,0.00,,OVC110,0.00,VWS V14.01,2013-01-26 00:22:00,
2013-01-25 19:28:00,23.3,-3.5,30.10,WSW,238,1.5,1.5,30,0.00,,OVC110,0.00,VWS V14.01,2013-01-26 00:28:00,
2013-01-25 19:34:00,23.1,-4.3,30.10,NNW,332,1.5,1.5,29,0.00,,OVC110,0.00,VWS V14.01,2013-01-26 00:34:00,
2013-01-25 19:39:00,23.1,-4.3,30.10,SW,228,1.5,3.2,29,0.00,,OVC110,0.00,VWS V14.01,2013-01-26 00:39:00,
2013-01-25 19:45:00,23.1,-4.3,30.10,SW,228,1.5,1.5,29,0.00,,OVC110,0.00,VWS V14.01,2013-01-26 00:45:00,
2013-01-25 19:51:00,23.1,-4.5,30.10,SW,228,1.5,1.5,29,0.00,,OVC110,0.00,VWS V14.01,2013-01-26 00:51:00,
2013-01-25 19:56:00,23.2,-3.8,30.09,SW,228,1.5,1.5,30,0.00,,OVC110,0.00,VWS V14.01,2013-01-26 00:56:00,
2013-01-25 20:02:00,23.2,-3.6,30.09,SW,228,1.5,1.5,30,0.00,,OVC090,0.00,VWS V14.01,2013-01-26 01:02:00,
2013-01-25 20:07:00,23.0,-3.5,30.09,SW,228,1.5,1.5,30,0.00,,OVC090,0.00,VWS V14.01,2013-01-26 01:07:00,
2013-01-25 20:12:00,23.1,-3.6,30.09,WSW,243,3.8,3.8,30,0.00,,OVC090,0.00,VWS V14.01,2013-01-26 01:12:00,
2013-01-25 20:17:00,23.0,-4.4,30.09,West,267,1.5,2.6,29,0.00,,OVC090,0.00,VWS V14.01,2013-01-26 01:17:00,
2013-01-25 20:23:00,22.8,-4.3,30.09,WSW,239,2.1,2.1,30,0.00,,OVC090,0.00,VWS V14.01,2013-01-26 01:23:00,
2013-01-25 20:28:00,22.9,-4.2,30.08,SW,221,1.5,1.5,30,0.00,,OVC090,0.00,VWS V14.01,2013-01-26 01:28:00,
2013-01-25 20:34:00,23.0,-3.8,30.08,SW,221,1.5,1.5,30,0.00,,OVC090,0.00,VWS V14.01,2013-01-26 01:34:00,
2013-01-25 20:39:00,23.0,-3.8,30.07,SW,221,1.5,1.5,30,0.00,,OVC090,0.00,VWS V14.01,2013-01-26 01:39:00,
2013-01-25 20:44:00,22.9,-4.0,30.08,SW,221,1.5,1.5,30,0.00,,OVC090,0.00,VWS V14.01,2013-01-26 01:44:00,
2013-01-25 20:49:00,22.9,-3.5,30.07,SW,221,1.5,1.5,31,0.00,,OVC090,0.00,VWS V14.01,2013-01-26 01:49:00,
2013-01-25 20:54:00,22.9,-3.3,30.06,SW,221,1.5,1.5,31,0.00,,OVC090,0.00,VWS V14.01,2013-01-26 01:54:00,
2013-01-25 21:00:00,22.8,-3.6,30.06,SW,221,1.5,1.5,31,0.00,,OVC090,0.00,VWS V14.01,2013-01-26 02:00:00,
2013-01-25 21:05:00,22.7,-2.7,30.06,SW,221,1.5,1.5,32,0.00,,OVC080,0.00,VWS V14.01,2013-01-26 02:05:00,
2013-01-25 21:10:00,22.9,-2.6,30.05,SW,221,1.5,1.5,32,0.00,,OVC080,0.00,VWS V14.01,2013-01-26 02:10:00,
2013-01-25 21:15:00,22.9,-2.0,30.05,SW,221,1.5,1.5,33,0.00,,OVC080,0.00,VWS V14.01,2013-01-26 02:15:00,
2013-01-25 21:20:00,22.9,-2.4,30.06,SW,215,1.5,3.6,32,0.00,,OVC080,0.00,VWS V14.01,2013-01-26 02:20:00,
2013-01-25 21:25:00,22.8,-2.9,30.06,WSW,240,2.8,5.5,32,0.00,,OVC080,0.00,VWS V14.01,2013-01-26 02:25:00,
2013-01-25 21:30:00,22.8,-3.5,30.06,WSW,238,1.5,1.5,31,0.00,,OVC080,0.00,VWS V14.01,2013-01-26 02:30:00,
2013-01-25 21:35:00,22.8,-3.3,30.06,WSW,238,1.5,1.5,31,0.00,,OVC080,0.00,VWS V14.01,2013-01-26 02:35:00,
2013-01-25 21:40:00,22.8,-3.5,30.05,NW,314,1.5,2.7,31,0.00,,OVC080,0.00,VWS V14.01,2013-01-26 02:40:00,
2013-01-25 21:45:00,22.7,-3.4,30.05,NW,314,1.5,1.5,31,0.00,,OVC080,0.00,VWS V14.01,2013-01-26 02:45:00,
2013-01-25 21:50:00,22.8,-3.4,30.05,WSW,246,3.9,4.1,31,0.00,,OVC080,0.00,VWS V14.01,2013-01-26 02:50:00,
2013-01-25 21:55:00,22.8,-3.4,30.06,WSW,252,4.3,5.4,31,0.00,,OVC080,0.00,VWS V14.01,2013-01-26 02:55:00,
2013-01-25 22:01:00,22.5,-3.8,30.06,WSW,243,5.2,9.3,31,0.00,,OVC075,0.00,VWS V14.01,2013-01-26 03:01:00,
2013-01-25 22:06:00,22.2,-2.1,30.06,WSW,239,6.9,7.3,34,0.00,,OVC075,0.00,VWS V14.01,2013-01-26 03:06:00,
2013-01-25 22:11:00,21.8,0.2,30.06,WSW,252,4.1,5.4,38,0.00,,OVC075,0.00,VWS V14.01,2013-01-26 03:11:00,
2013-01-25 22:16:00,21.4,1.9,30.06,WNW,285,3.4,5.3,42,0.00,,OVC075,0.00,VWS V14.01,2013-01-26 03:16:00,
2013-01-25 22:21:00,21.2,3.4,30.06,NW,323,1.5,3.7,46,0.00,,OVC075,0.00,VWS V14.01,2013-01-26 03:21:00,
2013-01-25 22:26:00,21.2,5.0,30.05,NNW,336,1.5,1.5,49,0.00,,OVC075,0.00,VWS V14.01,2013-01-26 03:26:00,
2013-01-25 22:31:00,20.9,5.8,30.05,NNE,17,1.5,3.1,52,0.00,,OVC075,0.00,VWS V14.01,2013-01-26 03:31:00,
2013-01-25 22:36:00,20.6,6.5,30.05,NNW,332,1.5,2.2,54,0.00,,,0.00,VWS V14.01,2013-01-26 03:36:00,
2013-01-25 22:41:00,20.5,7.6,30.05,North,6,3.4,3.4,57,0.00,,,0.00,VWS V14.01,2013-01-26 03:41:00,
2013-01-25 22:46:00,20.1,8.2,30.05,NNW,343,1.5,1.5,59,0.00,,,0.00,VWS V14.01,2013-01-26 03:46:00,
2013-01-25 22:52:00,19.9,8.8,30.04,NNW,343,1.5,1.5,61,0.00,,,0.00,VWS V14.01,2013-01-26 03:52:00,
2013-01-25 22:57:00,19.8,9.5,30.04,NNW,343,1.5,1.5,64,0.00,,,0.00,VWS V14.01,2013-01-26 03:57:00,
2013-01-25 23:02:00,19.7,10.1,30.04,NNW,343,1.5,1.5,66,0.00,,,0.00,VWS V14.01,2013-01-26 04:02:00,
2013-01-25 23:07:00,19.6,10.4,30.04,NNW,343,1.5,1.5,67,0.00,,,0.00,VWS V14.01,2013-01-26 04:07:00,
2013-01-25 23:13:00,19.6,11.1,30.03,NNW,343,1.5,1.5,69,0.00,,,0.00,VWS V14.01,2013-01-26 04:13:00,
2013-01-25 23:18:00,19.6,11.4,30.03,NE,46,1.5,4.6,70,0.00,,,0.00,VWS V14.01,2013-01-26 04:18:00,
2013-01-25 23:24:00,19.4,11.5,30.03,NE,46,1.5,1.5,71,0.00,,,0.00,VWS V14.01,2013-01-26 04:24:00,
2013-01-25 23:29:00,19.4,11.9,30.03,NE,46,1.5,1.5,72,0.00,,,0.00,VWS V14.01,2013-01-26 04:29:00,
2013-01-25 23:34:00,19.6,12.4,30.03,NE,46,1.5,1.5,73,0.00,,,0.00,VWS V14.01,2013-01-26 04:34:00,
2013-01-25 23:39:00,19.7,12.6,30.03,NE,46,1.5,1.5,74,0.00,,,0.00,VWS V14.01,2013-01-26 04:39:00,
2013-01-25 23:44:00,19.8,12.8,30.02,NE,46,1.5,1.5,74,0.00,,,0.00,VWS V14.01,2013-01-26 04:44:00,
2013-01-25 23:49:00,20.0,13.1,30.02,NE,46,1.5,1.5,74,0.00,,,0.00,VWS V14.01,2013-01-26 04:49:00,
2013-01-25 23:54:00,20.0,13.2,30.02,NE,46,1.5,1.5,74,0.00,,,0.00,VWS V14.01,2013-01-26 04:54:00,